Regional Weather Roundup
Issued by NWS

Home | Current Version | Previous Version | Text Only | Print | Product List | Glossary On
Versions: 1 2 3 4 5 6 7 8 9 10 11 12 13 14 15 16 17 18 19 20 21 22 23 24 25 26 27 28 29 30 31 32 33 34 35 36 37 38 39 40 41 42 43 44 45 46 47 48 49 50
000
ASUS43 KLMK 010210
RWRKY
KENTUCKY REGIONAL WEATHER ROUNDUP
NATIONAL WEATHER SERVICE LOUISVILLE KY
1000 PM EDT MON AUG 31 2015

NOTE "FAIR" INDICATES FEW OR NO CLOUDS BELOW 12,000 FEET
WITH NO SIGNIFICANT WEATHER AND/OR OBSTRUCTIONS TO VISIBILITY.

KYZ001>023-026-027-061>063-070>075-010300-
WESTERN AND SOUTH CENTRAL KENTUCKY

CITY           SKY/WX    TMP DP  RH WIND       PRES   REMARKS
PADUCAH        CLEAR     74  69  85 CALM      30.06R
HENDERSON      CLEAR     72  66  83 S5        30.07R
OWENSBORO      CLEAR     76  69  79 CALM      30.09R
HOPKINSVILLE   CLEAR     74  67  79 CALM      30.08R
BOWLING GREEN  CLEAR     77  65  66 CALM      30.10R
GLASGOW        CLEAR     71  66  85 CALM      30.11R
$$

KYZ024-025-028>034-038-045-046-053-010300-
NORTH CENTRAL KENTUCKY

CITY           SKY/WX    TMP DP  RH WIND       PRES   REMARKS
LOUISVILLE/SDF CLEAR     80  66  62 SW7       30.09R
LOUISVILLE/LOU CLEAR     79  64  60 CALM      30.10R
FORT KNOX      CLEAR     69  65  85 CALM      30.09R
$$

KYZ035>037-039>044-047>052-055>060-089>105-010300-
NORTHEAST KENTUCKY

CITY           SKY/WX    TMP DP  RH WIND       PRES   REMARKS
LEXINGTON      CLEAR     75  64  68 CALM      30.12R
COVINGTON      PTCLDY    73  67  81 S3        30.11R
FRANKFORT      CLEAR     72  65  78 CALM      30.10R
$$

KYZ054-064>069-076>088-106>120-010300-
SOUTHEAST KENTUCKY

CITY           SKY/WX    TMP DP  RH WIND       PRES   REMARKS
JACKSON        CLEAR     75  62  64 CALM      30.14R
LONDON         CLEAR     73  65  75 CALM      30.13R
SOMERSET       CLEAR     70  70 100 CALM      30.13R
MIDDLESBORO    CLEAR     71  66  85 CALM      30.14R
MONTICELLO     CLEAR     68  68 100 CALM      30.15R FOG
$$



USA.gov is the U.S. government's official web portal to all federal, state and local government web resources and services.